TimeCDT,TemperatureF,Dew PointF,Humidity,Sea Level PressureIn,VisibilityMPH,Wind Direction,Wind SpeedMPH,Gust SpeedMPH,PrecipitationIn,Events,Conditions,WindDirDegrees,DateUTC
12:15 AM,48.2,32.0,54,30.22,10.0,NNW,5.8,-,N/A,,Clear,330,2013-05-12 05:15:00
12:35 AM,46.4,32.0,57,30.22,10.0,NNW,5.8,-,N/A,,Clear,330,2013-05-12 05:35:00
12:55 AM,46.4,32.0,57,30.22,10.0,NNW,5.8,-,N/A,,Clear,330,2013-05-12 05:55:00
1:15 AM,46.4,32.0,57,30.22,10.0,NNW,5.8,-,N/A,,Clear,330,2013-05-12 06:15:00
1:35 AM,46.4,32.0,57,30.23,10.0,NW,4.6,-,N/A,,Clear,320,2013-05-12 06:35:00
1:55 AM,46.4,32.0,57,30.23,10.0,NW,4.6,-,N/A,,Clear,310,2013-05-12 06:55:00
2:15 AM,44.6,32.0,61,30.23,10.0,NW,5.8,-,N/A,,Clear,310,2013-05-12 07:15:00
2:35 AM,44.6,32.0,61,30.23,10.0,NW,4.6,-,N/A,,Clear,320,2013-05-12 07:35:00
2:55 AM,44.6,32.0,61,30.22,10.0,WNW,3.5,-,N/A,,Clear,300,2013-05-12 07:55:00
3:15 AM,42.8,32.0,66,30.22,10.0,West,4.6,-,N/A,,Clear,270,2013-05-12 08:15:00
3:35 AM,42.8,32.0,66,30.23,10.0,West,4.6,-,N/A,,Clear,260,2013-05-12 08:35:00
3:55 AM,41.0,32.0,70,30.23,10.0,West,4.6,-,N/A,,Clear,260,2013-05-12 08:55:00
4:35 AM,41.0,32.0,70,30.23,10.0,SW,5.8,-,N/A,,Clear,230,2013-05-12 09:35:00
4:55 AM,41.0,32.0,70,30.23,10.0,West,3.5,-,N/A,,Clear,260,2013-05-12 09:55:00
5:15 AM,41.0,32.0,70,30.23,10.0,West,4.6,-,N/A,,Clear,260,2013-05-12 10:15:00
5:35 AM,41.0,32.0,70,30.23,10.0,West,4.6,-,N/A,,Clear,270,2013-05-12 10:35:00
5:55 AM,39.2,32.0,75,30.24,10.0,West,5.8,-,N/A,,Clear,280,2013-05-12 10:55:00
6:15 AM,39.2,32.0,75,30.24,10.0,West,5.8,-,N/A,,Clear,270,2013-05-12 11:15:00
6:35 AM,37.4,32.0,81,30.24,10.0,WSW,3.5,-,N/A,,Clear,240,2013-05-12 11:35:00
6:55 AM,41.0,32.0,70,30.25,10.0,WSW,4.6,-,N/A,,Clear,250,2013-05-12 11:55:00
7:15 AM,42.8,32.0,66,30.25,10.0,West,4.6,-,N/A,,Clear,260,2013-05-12 12:15:00
7:35 AM,42.8,32.0,66,30.26,10.0,WSW,4.6,-,N/A,,Clear,250,2013-05-12 12:35:00
7:55 AM,44.6,32.0,61,30.27,10.0,West,5.8,-,N/A,,Clear,260,2013-05-12 12:55:00
8:15 AM,46.4,32.0,57,30.27,10.0,West,3.5,-,N/A,,Clear,270,2013-05-12 13:15:00
8:35 AM,46.4,32.0,57,30.28,10.0,West,4.6,-,N/A,,Clear,270,2013-05-12 13:35:00
8:55 AM,50.0,32.0,50,30.29,10.0,North,3.5,-,N/A,,Clear,350,2013-05-12 13:55:00
9:15 AM,51.8,28.4,41,30.29,10.0,NNW,4.6,-,N/A,,Clear,340,2013-05-12 14:15:00
9:35 AM,51.8,28.4,41,30.29,10.0,NNE,3.5,-,N/A,,Clear,20,2013-05-12 14:35:00
9:55 AM,53.6,24.8,33,30.29,10.0,NW,4.6,-,N/A,,Clear,310,2013-05-12 14:55:00
10:15 AM,53.6,23.0,30,30.28,10.0,NW,5.8,-,N/A,,Clear,310,2013-05-12 15:15:00
10:35 AM,53.6,21.2,28,30.28,10.0,West,10.4,-,N/A,,Clear,280,2013-05-12 15:35:00
10:55 AM,55.4,23.0,29,30.28,10.0,NNW,6.9,16.1,N/A,,Clear,330,2013-05-12 15:55:00
11:15 AM,55.4,23.0,29,30.28,10.0,NW,3.5,-,N/A,,Clear,310,2013-05-12 16:15:00
11:35 AM,55.4,23.0,29,30.27,10.0,NW,6.9,-,N/A,,Clear,310,2013-05-12 16:35:00
11:55 AM,55.4,23.0,29,30.27,10.0,Calm,Calm,-,N/A,,Clear,0,2013-05-12 16:55:00
12:15 PM,57.2,26.6,31,30.26,10.0,NNW,5.8,-,N/A,,Clear,330,2013-05-12 17:15:00
12:35 PM,59.0,26.6,29,30.26,10.0,WSW,3.5,-,N/A,,Clear,240,2013-05-12 17:35:00
12:55 PM,59.0,24.8,27,30.25,10.0,West,4.6,9.2,N/A,,Clear,260,2013-05-12 17:55:00
1:15 PM,60.8,26.6,27,30.24,10.0,West,10.4,-,N/A,,Clear,270,2013-05-12 18:15:00
1:35 PM,60.8,21.2,22,30.24,10.0,WNW,5.8,16.1,N/A,,Clear,300,2013-05-12 18:35:00
1:55 PM,60.8,23.0,23,30.24,10.0,West,11.5,-,N/A,,Clear,270,2013-05-12 18:55:00
2:15 PM,60.8,21.2,22,30.23,10.0,West,8.1,17.3,N/A,,Clear,260,2013-05-12 19:15:00
2:35 PM,62.6,23.0,22,30.23,10.0,West,11.5,19.6,N/A,,Clear,280,2013-05-12 19:35:00
2:55 PM,62.6,23.0,22,30.21,10.0,NW,9.2,-,N/A,,Clear,310,2013-05-12 19:55:00
3:15 PM,62.6,23.0,22,30.20,10.0,North,5.8,-,N/A,,Clear,10,2013-05-12 20:15:00
3:35 PM,62.6,23.0,22,30.20,10.0,NW,9.2,-,N/A,,Clear,320,2013-05-12 20:35:00
3:55 PM,62.6,23.0,22,30.20,10.0,WNW,4.6,-,N/A,,Clear,300,2013-05-12 20:55:00
4:15 PM,62.6,24.8,24,30.19,10.0,NW,4.6,-,N/A,,Clear,310,2013-05-12 21:15:00
4:35 PM,62.6,23.0,22,30.18,10.0,WNW,10.4,17.3,N/A,,Clear,290,2013-05-12 21:35:00
4:55 PM,62.6,24.8,24,30.18,10.0,West,8.1,-,N/A,,Clear,270,2013-05-12 21:55:00
5:15 PM,62.6,26.6,26,30.18,10.0,West,8.1,-,N/A,,Clear,270,2013-05-12 22:15:00
5:35 PM,62.6,24.8,24,30.18,10.0,West,6.9,16.1,N/A,,Clear,280,2013-05-12 22:35:00
5:55 PM,62.6,24.8,24,30.18,10.0,West,8.1,-,N/A,,Clear,280,2013-05-12 22:55:00
6:15 PM,62.6,26.6,26,30.17,10.0,NW,4.6,-,N/A,,Clear,310,2013-05-12 23:15:00
6:35 PM,62.6,28.4,27,30.16,10.0,NW,3.5,-,N/A,,Clear,310,2013-05-12 23:35:00
6:55 PM,62.6,28.4,27,30.16,10.0,NW,8.1,-,N/A,,Clear,310,2013-05-12 23:55:00
7:15 PM,60.8,28.4,29,30.17,10.0,WNW,6.9,-,N/A,,Clear,300,2013-05-13 00:15:00
7:35 PM,59.0,28.4,31,30.16,10.0,NW,5.8,-,N/A,,Clear,310,2013-05-13 00:35:00
7:55 PM,57.2,28.4,33,30.17,10.0,NW,4.6,-,N/A,,Clear,320,2013-05-13 00:55:00
8:15 PM,55.4,30.2,38,30.17,10.0,WNW,4.6,-,N/A,,Clear,300,2013-05-13 01:15:00
8:35 PM,57.2,28.4,33,30.17,10.0,NW,3.5,-,N/A,,Clear,320,2013-05-13 01:35:00
8:55 PM,55.4,30.2,38,30.18,10.0,Calm,Calm,-,N/A,,Scattered Clouds,0,2013-05-13 01:55:00
9:15 PM,53.6,32.0,44,30.19,10.0,Calm,Calm,-,N/A,,Scattered Clouds,0,2013-05-13 02:15:00
9:35 PM,50.0,33.8,54,30.19,10.0,Calm,Calm,-,N/A,,Mostly Cloudy,0,2013-05-13 02:35:00
9:55 PM,53.6,30.2,41,30.19,10.0,Calm,Calm,-,N/A,,Overcast,0,2013-05-13 02:55:00
10:15 PM,53.6,32.0,44,30.19,10.0,Calm,Calm,-,N/A,,Overcast,0,2013-05-13 03:15:00
10:35 PM,50.0,35.6,58,30.20,10.0,Calm,Calm,-,N/A,,Mostly Cloudy,0,2013-05-13 03:35:00
10:55 PM,50.0,32.0,50,30.19,10.0,Calm,Calm,-,N/A,,Mostly Cloudy,0,2013-05-13 03:55:00
11:15 PM,51.8,32.0,47,30.20,10.0,Calm,Calm,-,N/A,,Mostly Cloudy,0,2013-05-13 04:15:00
11:35 PM,48.2,35.6,62,30.19,10.0,SE,4.6,-,N/A,,Overcast,140,2013-05-13 04:35:00
11:55 PM,50.0,33.8,54,30.19,10.0,SSE,4.6,-,N/A,,Mostly Cloudy,150,2013-05-13 04:55:00